Tracking 17560 objects as of 11-February-2016
HD Live streaming from Space Station
objects crossing your sky now

H-1 R/B(1)

Track H-1 R/B(1) now!
10-day predictions


NORAD ID: 20230
Int'l Code: 1989-070B
Perigee: 194.1 km
Apogee: 7,508.5 km
Inclination: 28.2 °
Period: 171.4 minutes
Semi major axis: 10222 km
RCS: 2.9914 m2 (large)
Launch date: September 5, 1989
Source: Japan (JPN)
Launch site: TANEGASHIMA SPACE CENTER (TNSTA)

Note: This is a ROCKET BODY
Your satellite tracking list
Your tracking list is empty





NASA's NSSDC Master Catalog

Two Line Element Set (TLE):
1 20230U 89070B   16041.81966447  .00202441 -11490-6  11873-2 0  9995
2 20230  28.2189 179.2554 3577627  87.3098 312.3000  8.4598453464632
Source of the keplerian elements: AFSPC

N2YO: 891